Miscellaneous Local Product
Issued by NWS North Platte, NE

Home | Current Version | Previous Version | Graphics & Text | Print | Product List | Glossary On
Versions: 1 2 3 4 5 6 7 8 9 10 11 12 13 14 15 16 17 18 19 20 21 22 23 24 25 26 27 28 29 30 31 32 33 34 35 36 37 38 39 40 41 42 43 44 45 46 47 48 49 50
000
AXUS43 KLBF 161410
MISLBF


WESTERN AND NORTH CENTRAL NEBRASKA HOURLY WEATHER ROUNDUP
NATIONAL WEATHER SERVICE NORTH PLATTE NE
900 AM CDT THU APR 16 2015

***STATIONS NOT REPORTING VARIABLES SUCH AS SKY/WEATHER OR
PRESSURE ARE PROVIDED BY THE NEBRASKA DEPARTMENT OF
ROADS...RAWS...AND APRS NETWORKS...AND ARE NOT UNDER
NATIONAL WEATHER SERVICE QUALITY CONTROL***

...OBSERVATIONS IN AND NEAR THE EASTERN PANHANDLE OF NEBRASKA...

CITY           SKY/WX    TMP DP  RH WIND       PRES   REMARKS
PINE RIDGE     CLOUDY    42  39  89 CALM      30.13R
CHADRON        CLOUDY    42  37  82 NW9       30.14R
ALLIANCE       CLOUDY    40  37  89 NW8       30.12R WCI  34
SIDNEY         CLOUDY    37  36  96 N16       30.10R FOG     WCI  28
$$

...OBSERVATIONS IN NORTH CENTRAL NEBRASKA...

CITY           SKY/WX    TMP DP  RH WIND       PRES   REMARKS
VALENTINE      PTSUNNY   48  39  71 NW9       30.08R
THEDFORD       CLOUDY    49  44  83 N9        30.08R
AINSWORTH      CLOUDY    48  41  77 NW9       30.08R
O`NEILL        CLOUDY    52  50  95 CALM      30.04S FOG
ORD            CLOUDY    53  50  89 CALM      30.04R FOG
BROKEN BOW     CLOUDY    54  50  86 N6        30.04R FOG
$$

...OBSERVATIONS IN SOUTHWEST NEBRASKA AND FAR NORTHEAST COLORADO...

CITY           SKY/WX    TMP DP  RH WIND       PRES   REMARKS
WRAY           CLOUDY    44  44 100 N16       30.04R
HOLYOKE        DRIZZLE   43  41  93 N12       30.06R
IMPERIAL       CLOUDY    47  45  93 N10       30.04R FOG
OGALLALA       CLOUDY    47  44  87 N14       30.05S
NORTH PLATTE   CLOUDY    51  49  92 NE13      30.02S
MCCOOK         FOG       53  51  93 E9        30.00R VSB 1/4
LEXINGTON      CLOUDY    56  55  95 E8        30.03R FOG
$$

...NORTH PLATTE AREA...

CITY           SKY/WX    TMP DP  RH WIND       PRES   REMARKS
AIRPORT        CLOUDY    51  49  92 NE13      30.02S
$$

...SOME WEATHER OBSERVATIONS FROM AROUND THE REGION...

CITY           SKY/WX    TMP DP  RH WIND       PRES   REMARKS
DENVER         SNOW      33  32  96 N14       30.05F VSB 1/4 WCI  23
LARAMIE        CLOUDY    26  23  88 N9        30.10S WCI  17
CHEYENNE       CLOUDY    31  28  89 N23G35    30.08S WCI  18
SCOTTSBLUFF    CLOUDY    40  37  89 NW12      30.13R WCI  33
RAPID CITY     MOSUNNY   43  36  76 N24       30.11R
PIERRE         CLOUDY    48  39  71 W8        30.04R
WINNER         FAIR      49  40  71 W12       30.06S
SIOUX FALLS    PTSUNNY   55  48  77 SW6       30.06R
OMAHA          PTSUNNY   57  49  74 SE3       30.06R
GRAND ISLAND   CLOUDY    53  51  93 SE12      30.04S FOG
KANSAS CITY    PTSUNNY   56  53  90 CALM      30.07S
WICHITA        PTSUNNY   59  54  83 SE15      29.99S
HAYS           MOSUNNY   54  45  71 E13       29.96S
LIBERAL        SUNNY     57  46  67 E12       29.94S
GOODLAND       CLOUDY    45  44  97 NW15      30.02R FOG
$$



USA.gov is the U.S. government's official web portal to all federal, state and local government web resources and services.